Weather History for Monterey, CA

Change the Weather History Date:

Tuesday, August 5, 2014

  Actual Average Record
Temperature  
Mean Temperature 64 °F 61 °F  
Max Temperature 68 °F 68 °F 77 °F (2003)
Min Temperature 60 °F 54 °F 51 °F (2005)
Degree Days  
Heating Degree Days 1    
Month to date heating degree days 12  
Since 1 June heating degree days 182  
Since 1 July heating degree days 70  
Cooling Degree Days 0    
Month to date cooling degree days 0  
Year to date cooling degree days 68  
Since 1 June cooling degree days 26  
Growing Degree Days 13 (Base 50)    
Moisture  
Dew Point 56 °F    
Average Humidity 82    
Maximum Humidity 90    
Minimum Humidity 73    
Precipitation  
Precipitation 0.00 in - 0.01 in (2010)
Month to date precipitation 0.00  
Year to date precipitation 7.40  
Since 1 July precipitation 0.01  
Sea Level Pressure  
Sea Level Pressure 30.08 in    
Wind  
Wind Speed 5 mph (West)    
Max Wind Speed 13 mph    
Max Gust Speed 17 mph    
Visibility 10 miles    
Events      
T = Trace of Precipitation, MM = Missing Value Source: NWS Daily Summary

Daily Weather History Graph

Daily Weather History Graph

Search for Another Location

Airport:

Trip Planner

Search our weather history database for the weather conditions in past years. The results will help you decide how hot, cold, wet, or windy it might be!

Date:

Astronomy

Aug. 05, 2014 Rise Set
Actual Time 6:16 AM PDT 8:09 PM PDT
Civil Twilight 5:48 AM PDT 8:37 PM PDT
Nautical Twilight 5:14 AM PDT 9:11 PM PDT
Astronomical Twilight 4:37 AM PDT 9:47 PM PDT
Moon 3:29 PM PDT (8/5) 1:08 AM PDT (8/5)
Length of Visible Light 14h 48m
Length of Day
13h 52m
Waxing Gibbous, 69% of the Moon is Illuminated
Aug 5
Waxing Gibbous
Aug 10
Full
Aug 17
Last Quarter
Aug 25
New
Sep 2
First Quarter

Hourly Weather History & Observations

Time (PDT) Temp. Dew Point Humidity Pressure Visibility Wind Dir Wind Speed Gust Speed Precip Events Conditions
12:54 AM 61.0 °F 55.0 °F 81% 30.06 in 10.0 mi SW 5.8 mph - N/A   Overcast
1:54 AM 60.1 °F 55.0 °F 83% 30.05 in 10.0 mi Calm Calm - N/A   Overcast
2:54 AM 60.1 °F 55.0 °F 83% 30.06 in 10.0 mi Calm Calm - N/A   Overcast
3:54 AM 61.0 °F 55.0 °F 81% 30.06 in 10.0 mi Calm Calm - N/A   Overcast
4:54 AM 60.1 °F 55.9 °F 86% 30.07 in 10.0 mi East 3.5 mph - N/A   Overcast
5:54 AM 60.1 °F 55.9 °F 86% 30.07 in 10.0 mi East 4.6 mph - N/A   Overcast
6:07 AM 60.8 °F 55.4 °F 82% 30.04 in 10.0 mi East 3.5 mph - N/A   Overcast
6:54 AM 60.1 °F 55.9 °F 86% 30.07 in 10.0 mi Calm Calm - N/A   Overcast
7:54 AM 60.1 °F 55.9 °F 86% 30.09 in 10.0 mi Calm Calm - N/A   Overcast
8:17 AM 60.8 °F 55.4 °F 82% 30.05 in 10.0 mi Calm Calm - N/A   Overcast
8:54 AM 62.1 °F 55.9 °F 80% 30.09 in 10.0 mi WSW 5.8 mph - N/A   Overcast
9:54 AM 61.0 °F 55.0 °F 81% 30.12 in 10.0 mi SSW 6.9 mph - N/A   Overcast
10:54 AM 62.1 °F 55.9 °F 80% 30.13 in 10.0 mi WSW 3.5 mph - N/A   Overcast
11:54 AM 62.1 °F 57.0 °F 84% 30.13 in 10.0 mi WNW 5.8 mph - N/A   Overcast
12:26 PM 62.6 °F 57.2 °F 82% 30.09 in 10.0 mi NW 5.8 mph - N/A   Overcast
12:41 PM 62.6 °F 57.2 °F 82% 30.09 in 10.0 mi NW 4.6 mph - N/A   Overcast
12:54 PM 64.0 °F 57.0 °F 78% 30.12 in 10.0 mi West 4.6 mph - N/A   Overcast
1:34 PM 66.2 °F 57.2 °F 73% 30.07 in 10.0 mi NW 5.8 mph - N/A   Partly Cloudy
1:54 PM 66.0 °F 57.0 °F 73% 30.10 in 10.0 mi WNW 9.2 mph - N/A   Clear
2:54 PM 66.9 °F 57.0 °F 70% 30.09 in 10.0 mi NW 9.2 mph - N/A   Clear
3:54 PM 66.0 °F 57.0 °F 73% 30.07 in 10.0 mi NNW 9.2 mph - N/A   Clear
4:54 PM 66.0 °F 57.0 °F 73% 30.06 in 10.0 mi WNW 10.4 mph - N/A   Clear
5:54 PM 66.9 °F 57.0 °F 70% 30.06 in 10.0 mi WSW 10.4 mph - N/A   Partly Cloudy
6:27 PM 64.4 °F 57.2 °F 77% 30.04 in 10.0 mi WSW 9.2 mph - N/A   Mostly Cloudy
6:54 PM 63.0 °F 57.0 °F 81% 30.08 in 10.0 mi SW 9.2 mph - N/A   Overcast
7:54 PM 62.1 °F 57.0 °F 84% 30.07 in 10.0 mi West 5.8 mph - N/A   Clear
8:38 PM 60.8 °F 57.2 °F 88% 30.05 in 10.0 mi WSW 9.2 mph - N/A   Mostly Cloudy
8:54 PM 61.0 °F 57.0 °F 87% 30.08 in 10.0 mi WSW 6.9 mph - N/A   Mostly Cloudy
9:54 PM 61.0 °F 57.0 °F 87% 30.10 in 10.0 mi West 4.6 mph - N/A   Overcast
10:54 PM 61.0 °F 57.9 °F 90% 30.09 in 10.0 mi SSW 3.5 mph - N/A   Overcast
11:54 PM 61.0 °F 57.0 °F 87% 30.08 in 10.0 mi ESE 3.5 mph - N/A   Overcast